Current weather by "City, St" or "zip code"  
 

Current Conditions: OSCODA/WURTSMITH

Clear


48.7 F

Last Updated on May 26 2024, 02:55 AM EDT
Humidity: 92%
Wind Speed: 0.0 mph
Barometer 29.92 in
Dewpoint: 46.6 F
Visibility: 10.00 mi
Precip: --
Heat Index: NA
Wind Chill: NA
Current conditions at:

OSCODA/WURTSMITH (KOSC)

Lat: 44.45 Lon: 83.4

active severe weather and emergency alerts image image weather storm and storm spotter reports image weather observation monitoring service image
Active
Alerts
Storm Reports Obs
Monitoring

Sign-up For Email & Text Message Weather Alert Notification Services



Advertise Here

Observation History for OSCODA/WURTSMITH


Time Wind
(mph)
Vis
(mi)
Weather Precip (in) Temperature (F) Relative
Humidity
Wind
Chill
(F)
Heat
Index
(F)
Pressure
Air Dwpt altimeter
(in)
sea level
(mb)
Rmks
02:55 AM EDT 0.0 10.00 Clear -- 48.7 46.6 92% NA NA 29.92 1013.2
02:35 AM EDT 0.0 10.00 Clear -- 47.1 44.6 91% NA NA 29.92 1013.2
01:55 AM EDT 0.0 10.00 Clear -- 49.1 46.9 92% NA NA 29.92 1013.2
01:35 AM EDT 0.0 10.00 Clear -- 48.7 46.8 93% NA NA 29.92 1013.2
12:55 AM EDT SW 3.4 10.00 Clear -- 49.8 47.3 91% 49.1 NA 29.92 1013.2
12:35 AM EDT 0.0 10.00 Clear -- 49.8 46.8 89% NA NA 29.94 1013.6
12:15 AM EDT 0.0 10.00 Clear -- 49.8 46.4 88% NA NA 29.92 1013.2
11:55 PM EDT 0.0 10.00 Clear -- 50.4 47.7 90% NA NA 29.92 1013.2
10:55 PM EDT 0.0 10.00 Clear -- 55.4 51.3 86% NA NA 29.91 1012.9
10:35 PM EDT 0.0 10.00 Clear -- 55.4 51.3 86% NA NA 29.91 1012.9
10:15 PM EDT NE 3.4 10.00 Clear -- 54.1 50.9 89% NA NA 29.90 1012.5
09:55 PM EDT 4.7 10.00 Clear -- 54.9 51.1 87% NA NA 29.90 1012.5
09:35 PM EDT 4.7 10.00 Clear -- 55.0 51.3 87% NA NA 29.88 1011.9
09:15 PM EDT NE 5.8 10.00 Clear -- 56.3 52.0 85% NA NA 29.88 1011.9
07:55 PM EDT NE 9.2 10.00 Clear -- 61.0 52.5 74% NA NA 29.86 1011.2
07:15 PM EDT NE 11.4 10.00 Clear -- 63.5 53.8 71% NA NA 29.85 1010.8
06:55 PM EDT NE 11.4 10.00 Clear -- 64.0 54.5 71% NA NA 29.84 1010.5
06:35 PM EDT 10.00 Clear -- NULL 55.9 % NA NA 29.83 1010.2
05:55 PM EDT 11.4 10.00 Clear -- 70.0 57.4 64% NA NA 29.82 1009.8
05:35 PM EDT E 10.3 10.00 Clear -- 71.2 56.1 59% NA 70.9 29.81 1009.2
05:15 PM EDT 10.00 NULL -- 72.3 57.0 59% NA 72.0 29.81 1009.2
04:55 PM EDT 6.9 10.00 Clear -- NULL 46.6 % NA NA 29.79 1008.8
04:35 PM EDT 8.1 10.00 Clear -- NULL % NA NA 29.79 1008.8
04:15 PM EDT 9.2 10.00 Clear -- NULL % NA NA 29.79 1008.8

Regional Weather Observation


WEST BRANCH (KY31)

Fog/Mist
47.8 F

ALPENA (KAPN)

Clear
48.0 F

GRAYLING AF (KGOV)

Clear
43.9 F

HOUGHTON LAKE (KHTL)

Clear
48.0 F

PORT HOPE (KP58)

NULL
53.1 F

ROGERS CITY (KPZQ)

Clear
52.9 F

Advertise Here


Advertise Here